Content
SEND FEEDBACK

Daily
Averages
Monthly
Summary
United States of America

FONTANA DAM, NORTH CAROLINA


Home > North America > United States > North Carolina
Elevation: 1506 feet     Latitude: 35 27N     Longitude: 083 56W

WEATHER
 
SELECT A DAY
Number of Records: 301,053;   Date Range: 5/18/01 - 10/23/14
 
SHARE

PRINT THIS DATA

[ ← Previous Day ]
WEATHER ALMANAC - FEBRUARY 6, 2013
[ Next Day → ]
[ °C ]   °F
Weather ElementAverageHighLow
Temperature39.5 °F61.2 °F (3:35 pm)25.2 °F (7:35 am)
Dewpoint29.2 °F38.3 °F (10:55 am)20.7 °F (4:15 pm)
Humidity74.6 %100 % (3:55 am)21 % (4:15 pm)
Barometer30.13 in30.19 in (11:15 am)30.06 in (12:35 am)
Wind Speed1.8 mph10.4 mph (11:15 am)
Weather ElementAverage
Visibility7 mi
Wind DirectionENE (68.9 °)

Weather ElementTotal
Precipitation---
Heating Degree Days21.8 (Base 65)
Averaged from 70 records on February 6, 2013
WEATHER CONDITIONS BREAKOUT
WIND DIRECTION BREAKOUT
WEATHER BY HOUR - FEBRUARY 6, 2013
[ °C ]   °F
Local TimeTemperatureDewpointHumidityBarometerVisibilityWind DirectionWind SpeedGust SpeedPrecipitationEventsConditions
12:35 AM31.3 °F30.9 °F99 %30.06 in5.0 miCalmMostly Cloudy
12:55 AM30.9 °F30.6 °F99 %30.06 in7.0 miCalmMostly Cloudy
1:15 AM30.7 °F30.2 °F98 %30.06 in7.0 miCalmMostly Cloudy
1:35 AM31.5 °F31.3 °F99 %30.06 in5.0 miCalmClear
1:55 AM30.0 °F29.7 °F99 %30.06 in3.0 miCalmClear
2:15 AM29.5 °F29.1 °F99 %30.06 in7.0 miCalmClear
2:35 AM30.2 °F30.0 °F99 %30.06 in2.5 miCalmClear
2:55 AM28.2 °F27.9 °F99 %30.07 in2.5 miCalmScattered Clouds
3:15 AM29.7 °F29.5 °F99 %30.07 in7.0 miCalmClear
3:35 AM28.9 °F28.2 °F97 %30.07 in7.0 miCalmClear
3:55 AM29.3 °F29.3 °F100 %30.07 in4.0 miCalmClear
4:15 AM28.4 °F28.0 °F99 %30.08 in4.0 miCalmClear
4:35 AM28.4 °F28.4 °F100 %30.08 in0.5 miCalmFogLight Freezing Fog
4:55 AM28.0 °F27.9 °F99 %30.09 in0.8 miCalmOvercast
5:15 AM27.3 °F27.1 °F99 %30.10 in1.0 miCalmMostly Cloudy
5:35 AM27.7 °F27.7 °F100 %30.10 in0.2 miCalmFogLight Freezing Fog
5:55 AM27.1 °F26.8 °F99 %30.11 in0.2 miCalmFogLight Freezing Fog
6:15 AM26.8 °F26.8 °F100 %30.12 in0.2 miCalmFogLight Freezing Fog
6:35 AM25.5 °F25.3 °F99 %30.13 in0.2 miCalmFogLight Freezing Fog
6:55 AM26.4 °F26.2 °F99 %30.13 in0.5 miCalmFogLight Freezing Fog
7:15 AM25.7 °F25.3 °F99 %30.14 in0.8 miCalmMostly Cloudy
7:35 AM25.2 °F24.8 °F99 %30.15 in0.2 miWSW (250°)3.5 mphFogLight Freezing Fog
7:55 AM25.2 °F25.0 °F99 %30.16 in0.2 miCalmFogLight Freezing Fog
8:15 AM25.7 °F25.5 °F99 %30.16 in0.2 miCalmFogLight Freezing Fog
8:35 AM27.5 °F27.5 °F100 %30.16 in0.2 miCalmFogLight Freezing Fog
8:55 AM28.9 °F28.9 °F100 %30.17 in0.5 miWSW (250°)3.5 mphFogLight Freezing Fog
9:15 AM30.0 °F29.8 °F99 %30.17 in0.2 miCalmFogLight Freezing Fog
9:35 AM32.0 °F32.0 °F100 %30.17 in3.0 miCalmMostly Cloudy
9:55 AM34.7 °F33.3 °F94 %30.17 in10.0 miCalmClear
10:15 AM37.6 °F35.2 °F91 %30.18 in10.0 miCalmClear
10:35 AM41.0 °F36.3 °F83 %30.18 in10.0 miSW (230°)6.9 mphClear
10:55 AM45.1 °F38.3 °F77 %30.18 in10.0 miWest (260°)8.1 mphClear
11:15 AM47.5 °F37.4 °F68 %30.19 in10.0 miWest (270°)10.4 mphClear
11:35 AM49.8 °F36.5 °F60 %30.19 in10.0 miWest (260°)8.1 mphClear
11:55 AM51.3 °F36.3 °F57 %30.18 in10.0 miWest (270°)9.2 mphClear
12:15 PM53.2 °F34.2 °F48 %30.18 in10.0 miWest (260°)6.9 mphClear
12:35 PM54.0 °F31.1 °F42 %30.17 in10.0 miWest (270°)3.5 mphClear
1:15 PM57.2 °F31.3 °F37 %30.15 in10.0 miWest (260°)3.5 mphClear
1:35 PM57.7 °F30.6 °F36 %30.15 in10.0 miWSW (240°)6.9 mphClear
1:55 PM58.8 °F31.1 °F35 %30.14 in10.0 miCalmClear
2:15 PM59.0 °F28.9 °F32 %30.13 in10.0 miWest (260°)6.9 mphClear
2:35 PM59.4 °F26.6 °F29 %30.12 in10.0 miCalmClear
2:55 PM60.4 °F25.7 °F27 %30.12 in10.0 miCalmClear
3:15 PM60.6 °F22.1 °F23 %30.11 in10.0 miCalmClear
3:35 PM61.2 °F22.1 °F22 %30.11 in10.0 miSW (230°)9.2 mphClear
3:55 PM61.2 °F22.5 °F23 %30.11 in10.0 miWSW (250°)8.1 mphClear
4:15 PM60.8 °F20.7 °F21 %30.12 in10.0 miWSW (240°)9.2 mphClear
4:35 PM60.3 °F21.7 °F23 %30.11 in10.0 miSW (230°)6.9 mphClear
4:55 PM59.9 °F21.9 °F23 %30.11 in10.0 miSW (230°)5.8 mphClear
5:15 PM57.9 °F23.7 °F27 %30.11 in10.0 miWSW (240°)6.9 mphClear
5:35 PM55.6 °F28.9 °F36 %30.11 in10.0 miCalmClear
5:55 PM51.4 °F25.9 °F37 %30.12 in10.0 miNW (320°)3.5 mphClear
6:15 PM49.5 °F27.5 °F43 %30.12 in10.0 miCalmClear
6:35 PM46.0 °F30.6 °F55 %30.12 in10.0 miCalmClear
6:55 PM42.4 °F30.2 °F62 %30.14 in10.0 miCalmClear
7:15 PM41.2 °F31.8 °F69 %30.14 in10.0 miCalmClear
7:35 PM39.0 °F30.6 °F72 %30.14 in10.0 miCalmClear
7:55 PM38.8 °F31.8 °F76 %30.14 in10.0 miCalmClear
8:15 PM38.8 °F31.1 °F74 %30.15 in10.0 miCalmClear
8:35 PM35.2 °F30.0 °F81 %30.16 in10.0 miCalmClear
8:55 PM35.2 °F30.4 °F82 %30.17 in10.0 miCalmClear
9:15 PM37.4 °F30.6 °F76 %30.18 in10.0 miCalmClear
9:35 PM34.7 °F30.9 °F86 %30.18 in10.0 miCalmClear
9:55 PM34.7 °F30.9 °F86 %30.17 in10.0 miCalmClear
10:15 PM35.2 °F30.7 °F84 %30.16 in10.0 miCalmClear
10:35 PM32.9 °F30.4 °F90 %30.16 in10.0 miCalmClear
10:55 PM33.3 °F30.7 °F90 %30.17 in10.0 miCalmClear
11:15 PM32.4 °F30.2 °F92 %30.16 in10.0 miCalmClear
11:35 PM34.0 °F30.7 °F88 %30.16 in10.0 miCalmClear
11:55 PM32.9 °F30.6 °F91 %30.16 in10.0 miCalmClear
Hourly data recorded from KRHP, located miles away from Fontana Dam, North Carolina







STORIES FROM OUR PARTNERS